Flag for Norway Weather past 2 weeks in Finse, Norway

Now
51 °F

Cool.


Feels Like: 48 °F
Forecast: 30 / 53 °F
Wind: 7 mph from Southeast

Location: Finsevatn

Current Time: Sep 16, 2014 at 1:51:51 PM

Latest Report: Sep 16, 2014 at 1:00 PM


Visibility: N/A

Pressure: 30.29 "Hg

Humidity: 66%

Dew point: 40 °F

Location of FinseLocation

Historic Weather in Finse — Graph

°F

Finse temperature yesterday

Maximum temperature yesterday: 56 °F (at 4:00 PM)
Minimum temperature yesterday: 37 °F (at 6:00 AM)
Average temperature yesterday: 47 °F

Past Weeks' High & Low Weather Summary

 TemperatureHumidityPressure
High59 °F (Sep 14, 5:00 PM)96% (Sep 2, 9:00 AM)30.56 "Hg (Sep 2, 9:00 AM)
Low36 °F (Sep 14, 7:00 AM)42% (Sep 14, 5:00 PM)29.76 "Hg (Sep 8, 4:00 PM)
Average47 °F82%30.18 "Hg
* Reported Sep 1 12:00 Noon — Sep 16 12:00 Noon, Finse, Weather by CustomWeather, © 2014

Note: Actual official high and low records may vary slightly from our data, if they occured in-between our weather recording intervals... More about our weather records

Advertising

Finse weather history for previous 24 hours

 ConditionsComfort  
Time TempWeatherWind HumidityBarometerVisibility
12:00 PM
Sep 16
50 °FCool.7 mph67%30.31 "HgN/A
11:00 AM47 °FCool.5 mph74%30.35 "HgN/A
10:00 AM44 °FQuite cool.6 mph78%30.39 "HgN/A
9:00 AM44 °FQuite cool.3 mph80%30.40 "HgN/A
8:00 AM41 °FQuite cool.3 mph86%30.41 "HgN/A
7:00 AM40 °FQuite cool.3 mph90%30.42 "HgN/A
6:00 AM40 °FQuite cool.3 mph89%30.42 "HgN/A
5:00 AM40 °FChilly.2 mph93%30.43 "HgN/A
4:00 AM37 °FChilly.2 mph89%30.46 "HgN/A
3:00 AM40 °FQuite cool.2 mph91%30.43 "HgN/A
2:00 AM39 °FChilly.2 mph91%30.45 "HgN/A
1:00 AM39 °FChilly.1 mph90%30.45 "HgN/A
12:00 AM43 °FQuite cool.2 mph84%30.42 "HgN/A
11:00 PM
Sep 15
42 °FQuite cool.3 mph87%30.42 "HgN/A
10:00 PM44 °FQuite cool.3 mph79%30.42 "HgN/A
9:00 PM46 °FCool.6 mph71%30.39 "HgN/A
8:00 PM49 °FCool.5 mph63%30.36 "HgN/A
7:00 PM52 °FCool.6 mph55%30.33 "HgN/A
6:00 PM56 °FRefreshingly cool.7 mph51%30.30 "HgN/A
5:00 PM56 °FRefreshingly cool.7 mph52%30.29 "HgN/A
4:00 PM56 °FRefreshingly cool.7 mph50%30.30 "HgN/A
3:00 PM55 °FRefreshingly cool.6 mph52%30.32 "HgN/A
2:00 PM55 °FRefreshingly cool.7 mph51%30.34 "HgN/A
1:00 PM53 °FCool.7 mph42%30.36 "HgN/A
Weather by CustomWeather, © 2014

See weather overviewHow to use our weather pages